Location: Altleiningen
(49.5078°N, 8.0741°E)
Time: 04:21:25
(UTC+00:00)

Cosmos 1515 - Pass Details

Date: 03 March 2021
Orbit: 504 x 516 km, 82.5° (Epoch: 11 April)

Event Time Altitude Azimuth Distance (km) Brightness Sun altitude
Rises 17:53:59 0° 352° (N) 2,648 7.4 -7.3°
Reaches altitude 10° 17:56:09 10° 356° (N) 1,754 6.4 -7.7°
Maximum altitude 17:59:58 64° 79° (ENE) 573 3.7 -8.3°
Drops below altitude 10° 18:03:45 10° 161° (SSE) 1,733 6.2 -8.9°
Sets 18:05:52 0° 164° (SSE) 2,612 7.1 -9.2°
